Weather History for Columbia, MO

Change the Weather History Date:

Friday, November 23, 2012

  Actual Average Record
Temperature  
Mean Temperature 37 °F 41 °F  
Max Temperature 47 °F 50 °F 75 °F (1974)
Min Temperature 26 °F 32 °F 4 °F (1950)
Degree Days  
Heating Degree Days 28 24  
Month to date heating degree days 389 436  
Since 1 July heating degree days 786 801  
Cooling Degree Days 0 0  
Month to date cooling degree days 3 0  
Year to date cooling degree days 1896 1247  
Moisture  
Dew Point 22 °F    
Average Humidity 61    
Maximum Humidity 82    
Minimum Humidity 40    
Precipitation  
Precipitation 0.00 in 0.11 in 0.82 in (1927)
Month to date precipitation 0.99 2.50  
Year to date precipitation 29.14 39.43  
Snow  
Snow 0.00 in 0.00 in 1.50 in (1971)
Month to date snowfall 0.0 0.5  
Since 1 July snowfall 0.0 0.5  
Since 1 September snowfall 0.0 0.5  
Snow Depth 0.00 in    
Sea Level Pressure  
Sea Level Pressure 30.33 in    
Wind  
Wind Speed 14 mph (NW)    
Max Wind Speed 30 mph    
Max Gust Speed 38 mph    
Visibility 10 miles    
Events      
T = Trace of Precipitation, MM = Missing Value Source: NWS Daily Summary

Daily Weather History Graph

Daily Weather History Graph

Search for Another Location

Airport:

Trip Planner

Search our weather history database for the weather conditions in past years. The results will help you decide how hot, cold, wet, or windy it might be!

Date:

Astronomy

Nov. 23, 2012 Rise Set
Actual Time 7:00 AM CST 4:50 PM CST
Civil Twilight 6:31 AM CST 5:18 PM CST
Nautical Twilight 5:58 AM CST 5:51 PM CST
Astronomical Twilight 5:27 AM CST 6:23 PM CST
Moon 2:02 PM CST (11/23) 2:22 AM CST (11/23)
Length of Visible Light 10h 47m
Length of Day
9h 49m
Waxing Gibbous, 80% of the Moon is Illuminated
Nov 23
Waxing Gibbous
Nov 28
Full
Dec 6
Last Quarter
Dec 13
New
Dec 19
First Quarter

Hourly Weather History & Observations

Time (CST) Temp. Windchill Dew Point Humidity Pressure Visibility Wind Dir Wind Speed Gust Speed Precip Events Conditions
12:54 AM 45.0 °F 38.2 °F 33.1 °F 63% 30.20 in 10.0 mi NW 15.0 mph - N/A   Clear
1:54 AM 43.0 °F 37.7 °F 34.0 °F 71% 30.22 in 10.0 mi NW 9.2 mph - N/A   Clear
2:54 AM 39.9 °F 35.8 °F 33.1 °F 77% 30.21 in 10.0 mi West 5.8 mph - N/A   Clear
3:54 AM 37.9 °F 33.5 °F 32.0 °F 79% 30.21 in 10.0 mi WSW 5.8 mph - N/A   Clear
4:54 AM 39.0 °F 32.3 °F 34.0 °F 82% 30.21 in 10.0 mi WSW 10.4 mph - N/A   Clear
5:54 AM 41.0 °F 32.5 °F 30.0 °F 65% 30.23 in 10.0 mi WNW 17.3 mph 24.2 mph N/A   Clear
6:54 AM 41.0 °F 30.2 °F 30.0 °F 65% 30.26 in 10.0 mi NNW 27.6 mph 35.7 mph N/A   Overcast
7:16 AM 39.2 °F 28.7 °F 26.6 °F 61% 30.27 in 10.0 mi NW 23.0 mph 32.2 mph N/A   Overcast
7:54 AM 39.0 °F 30.6 °F 27.0 °F 62% 30.30 in 10.0 mi NW 15.0 mph 24.2 mph N/A   Overcast
8:54 AM 37.9 °F 26.1 °F 24.1 °F 57% 30.33 in 10.0 mi NW 27.6 mph 32.2 mph N/A   Mostly Cloudy
9:54 AM 37.9 °F 27.6 °F 21.0 °F 51% 30.37 in 10.0 mi NW 20.7 mph 26.5 mph N/A   Clear
10:54 AM 37.9 °F 28.2 °F 19.9 °F 48% 30.37 in 10.0 mi NW 18.4 mph 26.5 mph N/A   Clear
11:54 AM 39.0 °F 30.3 °F 18.0 °F 43% 30.38 in 10.0 mi NW 16.1 mph - N/A   Clear
12:54 PM 39.9 °F 30.8 °F 19.0 °F 43% 30.35 in 10.0 mi WNW 18.4 mph 27.6 mph N/A   Clear
1:54 PM 39.9 °F 31.8 °F 17.1 °F 40% 30.35 in 10.0 mi WNW 15.0 mph 24.2 mph N/A   Clear
2:54 PM 39.9 °F 30.5 °F 18.0 °F 41% 30.36 in 10.0 mi NW 19.6 mph 24.2 mph N/A   Clear
3:54 PM 39.0 °F 31.0 °F 17.1 °F 41% 30.37 in 10.0 mi NW 13.8 mph - N/A   Clear
4:54 PM 35.1 °F 27.4 °F 16.0 °F 46% 30.38 in 10.0 mi NW 10.4 mph - N/A   Clear
5:54 PM 33.1 °F 25.5 °F 16.0 °F 50% 30.40 in 10.0 mi NW 9.2 mph - N/A   Clear
6:54 PM 32.0 °F 22.5 °F 17.1 °F 54% 30.40 in 10.0 mi NW 12.7 mph - N/A   Clear
7:54 PM 30.9 °F 22.2 °F 17.1 °F 57% 30.41 in 10.0 mi NW 10.4 mph - N/A   Clear
8:54 PM 28.9 °F 19.2 °F 17.1 °F 61% 30.41 in 10.0 mi NW 11.5 mph - N/A   Clear
9:54 PM 28.9 °F 20.4 °F 15.1 °F 56% 30.41 in 10.0 mi NW 9.2 mph - N/A   Clear
10:54 PM 27.0 °F 19.5 °F 16.0 °F 63% 30.40 in 10.0 mi NW 6.9 mph - N/A   Clear
11:54 PM 26.1 °F 17.6 °F 16.0 °F 66% 30.40 in 10.0 mi NW 8.1 mph - N/A   Clear